Content
SEND FEEDBACK

Daily
Averages
Monthly
Summary
United States of America

HOTCHKISS, COLORADO


Home > North America > United States > Colorado
Elevation: 6011 feet     Latitude: 38 51N     Longitude: 107 35W

WEATHER
 
SELECT A DAY
Number of Records: 67,072;   Date Range: 2/9/12 - 12/18/14
 
SHARE

PRINT THIS DATA

[ ← Previous Day ]
WEATHER ALMANAC - JANUARY 30, 2013
[ Next Day → ]
[ °C ]   °F
Weather ElementAverageHighLow
Temperature28 °F32 °F (11:55 am)20.8 °F (3:55 am)
Dewpoint19.6 °F25.7 °F (7:55 pm)13.8 °F (10:55 am)
Humidity71.8 %88 % (3:55 am)49 % (12:55 pm)
Barometer30.16 in30.20 in (10:35 am)30.06 in (12:35 am)
Wind Speed6 mph15 mph (12:35 am)
Weather ElementAverage
Visibility10 mi
Wind DirectionENE (75.5 °)

Weather ElementTotal
Precipitation---
Heating Degree Days38.6 (Base 65)
Averaged from 71 records on January 30, 2013
WEATHER CONDITIONS BREAKOUT
WIND DIRECTION BREAKOUT
WEATHER BY HOUR - JANUARY 30, 2013
[ °C ]   °F
Local TimeTemperatureDewpointHumidityBarometerVisibilityWind DirectionWind SpeedGust SpeedPrecipitationEventsConditions
12:35 AM23.7 °F18.9 °F82 %30.06 in10.0 miWest (260°)15.0 mphClear
12:55 AM23.4 °F18.5 °F82 %30.07 in10.0 miWest (280°)13.8 mphClear
1:15 AM23.7 °F18.0 °F79 %30.07 in10.0 miWNW (300°)9.2 mphClear
1:35 AM24.1 °F17.2 °F75 %30.07 in10.0 miNNW (330°)10.4 mphClear
1:55 AM23.7 °F17.6 °F77 %30.09 in10.0 miNNW (340°)9.2 mphClear
2:15 AM22.8 °F18.5 °F83 %30.10 in10.0 miCalmClear
2:35 AM22.5 °F18.5 °F85 %30.11 in10.0 miNE (40°)5.8 mphClear
2:55 AM22.3 °F18.3 °F85 %30.11 in10.0 miNNW (330°)4.6 mphClear
3:15 AM21.4 °F18.0 °F87 %30.11 in10.0 miCalmClear
3:35 AM21.2 °F17.8 °F87 %30.12 in10.0 miCalmClear
3:55 AM20.8 °F17.8 °F88 %30.13 in10.0 miEast (90°)5.8 mphClear
4:15 AM20.8 °F17.6 °F87 %30.14 in10.0 miENE (60°)6.9 mphScattered Clouds
4:35 AM21.6 °F18.5 °F88 %30.14 in10.0 miEast (90°)4.6 mphOvercast
4:55 AM21.9 °F18.5 °F87 %30.15 in10.0 miCalmOvercast
5:15 AM22.3 °F18.7 °F86 %30.15 in10.0 miNNE (30°)4.6 mphOvercast
5:35 AM23.0 °F18.9 °F84 %30.16 in10.0 miENE (60°)3.5 mphOvercast
5:55 AM23.4 °F19.0 °F84 %30.15 in10.0 miCalmOvercast
6:15 AM23.2 °F18.9 °F84 %30.15 in10.0 miENE (70°)6.9 mphOvercast
6:35 AM23.5 °F16.2 °F73 %30.17 in10.0 miENE (60°)5.8 mphOvercast
6:55 AM23.7 °F16.5 °F74 %30.17 in10.0 miENE (70°)4.6 mphOvercast
7:15 AM23.7 °F16.5 °F74 %30.17 in10.0 miNE (40°)4.6 mphOvercast
7:35 AM23.9 °F16.5 °F73 %30.17 in10.0 miNE (40°)4.6 mphOvercast
7:55 AM24.3 °F16.7 °F73 %30.18 in10.0 miNE (40°)3.5 mphOvercast
8:15 AM24.8 °F17.1 °F72 %30.17 in10.0 miNE (40°)4.6 mphOvercast
8:35 AM25.2 °F16.5 °F70 %30.18 in10.0 miNE (50°)4.6 mphOvercast
8:55 AM25.7 °F16.3 °F68 %30.19 in10.0 miNE (50°)5.8 mphOvercast
9:15 AM26.4 °F15.8 °F64 %30.19 in10.0 miNE (40°)6.9 mphOvercast
9:35 AM27.1 °F16.2 °F63 %30.19 in10.0 miENE (60°)5.8 mphOvercast
9:55 AM27.5 °F16.2 °F62 %30.19 in10.0 miENE (60°)4.6 mphOvercast
10:15 AM28.4 °F16.0 °F60 %30.19 in10.0 miENE (60°)4.6 mphOvercast
10:35 AM28.9 °F14.7 °F55 %30.20 in10.0 miENE (60°)4.6 mphMostly Cloudy
10:55 AM29.3 °F13.8 °F53 %30.20 in10.0 miNE (50°)5.8 mphScattered Clouds
11:15 AM29.8 °F16.9 °F59 %30.19 in10.0 miEast (80°)5.8 mphScattered Clouds
11:35 AM30.2 °F17.2 °F59 %30.19 in10.0 miEast (90°)5.8 mphScattered Clouds
11:55 AM32.0 °F17.8 °F56 %30.18 in10.0 miEast (80°)8.1 mphClear
12:15 PM31.3 °F16.5 °F54 %30.18 in10.0 miEast (80°)5.8 mphMostly Cloudy
12:35 PM32.0 °F15.3 °F50 %30.17 in10.0 miEast (80°)8.1 mphOvercast
12:55 PM32.0 °F14.7 °F49 %30.17 in10.0 miEast (80°)8.1 mphOvercast
1:15 PM32.0 °F15.4 °F51 %30.17 in10.0 miEast (100°)6.9 mphOvercast
1:35 PM32.0 °F15.3 °F50 %30.16 in10.0 miEast (80°)5.8 mphOvercast
1:55 PM32.0 °F15.8 °F51 %30.16 in10.0 miNE (50°)5.8 mphOvercast
2:15 PM32.0 °F17.4 °F55 %30.15 in10.0 miNE (50°)5.8 mphOvercast
2:35 PM32.0 °F18.1 °F57 %30.14 in10.0 miENE (60°)8.1 mphOvercast
2:55 PM32.0 °F19.4 °F60 %30.14 in10.0 miNNE (30°)9.2 mphOvercast
3:15 PM32.0 °F19.6 °F60 %30.15 in10.0 miNE (40°)8.1 mphOvercast
3:35 PM32.0 °F19.4 °F60 %30.15 in10.0 miNE (50°)8.1 mphOvercast
3:55 PM32.0 °F20.1 °F62 %30.15 in10.0 miNE (50°)9.2 mphOvercast
4:15 PM31.8 °F21.4 °F65 %30.15 in10.0 miNE (40°)6.9 mphOvercast
4:35 PM31.6 °F21.7 °F67 %30.16 in10.0 miNE (40°)9.2 mphOvercast
4:55 PM31.6 °F22.1 °F68 %30.16 in10.0 miNNE (30°)9.2 mphOvercast
5:15 PM31.5 °F22.1 °F68 %30.16 in10.0 miNE (40°)8.1 mphOvercast
5:35 PM31.6 °F23.4 °F71 %30.16 in10.0 miNE (40°)9.2 mphOvercast
5:55 PM31.3 °F23.5 °F73 %30.16 in10.0 miNE (50°)6.9 mphOvercast
6:15 PM31.5 °F23.7 °F73 %30.17 in10.0 miNE (40°)5.8 mphOvercast
6:35 PM31.6 °F23.5 °F72 %30.17 in10.0 miNNE (30°)6.9 mphOvercast
6:55 PM31.8 °F23.7 °F72 %30.18 in10.0 miNNE (20°)8.1 mphOvercast
7:15 PM31.8 °F23.9 °F73 %30.18 in10.0 miNNE (30°)5.8 mphOvercast
7:35 PM32.0 °F23.9 °F72 %30.18 in10.0 miNE (50°)4.6 mphOvercast
7:55 PM31.1 °F25.7 °F80 %30.18 in10.0 miEast (90°)4.6 mphOvercast
8:15 PM30.7 °F25.5 °F81 %30.19 in10.0 miEast (80°)4.6 mphOvercast
8:35 PM30.7 °F25.5 °F81 %30.19 in10.0 miENE (70°)4.6 mphOvercast
8:55 PM30.7 °F25.3 °F80 %30.20 in10.0 miENE (70°)6.9 mphOvercast
9:15 PM30.6 °F25.3 °F81 %30.19 in10.0 miENE (60°)5.8 mphOvercast
9:35 PM30.9 °F25.2 °F79 %30.20 in10.0 miENE (70°)5.8 mphOvercast
9:55 PM30.7 °F25.3 °F80 %30.20 in10.0 miEast (80°)5.8 mphOvercast
10:15 PM30.6 °F24.8 °F79 %30.19 in10.0 miEast (80°)4.6 mphOvercast
10:35 PM30.2 °F25.0 °F81 %30.19 in10.0 miEast (90°)4.6 mphOvercast
10:55 PM30.2 °F25.2 °F82 %30.20 in10.0 miENE (60°)3.5 mphOvercast
11:15 PM29.5 °F24.6 °F82 %30.19 in10.0 miENE (60°)4.6 mphOvercast
11:35 PM29.8 °F24.8 °F81 %30.19 in10.0 miNE (50°)4.6 mphOvercast
11:55 PM30.2 °F25.0 °F81 %30.20 in10.0 miEast (90°)3.5 mphOvercast
Hourly data recorded from KAJZ, located miles away from Hotchkiss, Colorado







STORIES FROM OUR PARTNERS